This is the latest recevied weather packets stored in our database for station/object ZR6G-15. If no packets are shown the sender has not sent any weather packets the latest 10 day(s).
| Time | Temp. | Humidity | Pressure | Rain* | Wind** | Luminosity | Snow |
|---|---|---|---|---|---|---|---|
| 1778194960 | 5.56° C | 42% | 1017.7 hPa | - | - | - | - |
| 1778194355 | 5.56° C | 41% | 1017.7 hPa | - | - | - | - |
| 1778193750 | 5.56° C | 41% | 1017.8 hPa | - | - | - | - |
| 1778193146 | 5.56° C | 40% | 1018 hPa | - | - | - | - |
| 1778192541 | 5.56° C | 40% | 1018 hPa | - | - | - | - |
| 1778191936 | 5.56° C | 40% | 1018.1 hPa | - | - | - | - |
| 1778191332 | 5.56° C | 39% | 1018.1 hPa | - | - | - | - |
| 1778190728 | 5.56° C | 39% | 1018.1 hPa | - | - | - | - |
| 1778190123 | 5.56° C | 39% | 1018.5 hPa | - | - | - | - |
| 1778189519 | 5.56° C | 41% | 1018.6 hPa | - | - | - | - |
| 1778188914 | 5.56° C | 41% | 1018.6 hPa | - | - | - | - |
| 1778188309 | 5.56° C | 40% | 1018.5 hPa | - | - | - | - |
| 1778187705 | 6.67° C | 41% | 1018.3 hPa | - | - | - | - |
| 1778187100 | 6.67° C | 41% | 1018.2 hPa | - | - | - | - |
| 1778186492 | 6.67° C | 39% | 1018.2 hPa | - | - | - | - |
| 1778185887 | 6.67° C | 37% | 1018.1 hPa | - | - | - | - |
| 1778185282 | 6.67° C | 40% | 1017.8 hPa | - | - | - | - |
| 1778184677 | 7.78° C | 37% | 1017.7 hPa | - | - | - | - |
| 1778184073 | 7.78° C | 37% | 1017.7 hPa | - | - | - | - |
| 1778183468 | 7.78° C | 37% | 1017.7 hPa | - | - | - | - |
| 1778182864 | 7.78° C | 37% | 1017.8 hPa | - | - | - | - |
| 1778182259 | 7.78° C | 37% | 1017.7 hPa | - | - | - | - |
| 1778181655 | 7.78° C | 37% | 1017.6 hPa | - | - | - | - |
| 1778181050 | 7.78° C | 37% | 1017.3 hPa | - | - | - | - |
| 1778180446 | 7.78° C | 37% | 1017.2 hPa | - | - | - | - |
* Rain since midnight (hover to see other rain measurements)
** Current wind speed in m/s (hover to see current wind gust speed)